Tracking 27111 objects as of 29-Mar-2023
HD Live streaming from Space Station
objects crossing your sky now

HUYGENS

Track HUYGENS now!
10-day predictions


NORAD ID: 55093
Int'l Code: 2023-001CN
Perigee: 518.5 km
Apogee: 538.8 km
Inclination: 97.5 °
Period: 95.1 minutes
Semi major axis: 6899 km
RCS: Unknown
Launch date: January 3, 2023
Source: Norway (NOR)
Launch site: AIR FORCE EASTERN TEST RANGE (AFETR)
Your satellite tracking list
Your tracking list is empty




NASA's NSSDC Master Catalog

Two Line Element Set (TLE):
1 55093U 23001CN  23087.87097512  .00007708  00000-0  41719-3 0  9994
2 55093  97.4873 148.7028 0014747 281.3497 166.2478 15.14827854 12900
Source of the keplerian elements: AFSPC